Tracking 28790 objects as of 19-Apr-2024
HD Live streaming from Space Station
objects crossing your sky now

CZ-6A DEB

Track CZ-6A DEB now!
10-day predictions


NORAD ID: 55871
Int'l Code: 2022-151ZT
Perigee: 827.7 km
Apogee: 867.3 km
Inclination: 98.8 °
Period: 101.7 minutes
Semi major axis: 7218 km
RCS: Unknown
Launch date: November 11, 2022
Source: People's Republic of China (PRC)
Launch site: Taiyaun Space Center, China (TSC)

Note: This is SATELLITE DEBRIS
Your satellite tracking list
Your tracking list is empty




NASA's NSSDC Master Catalog

Two Line Element Set (TLE):
1 55871U 22151ZT  24109.99869904  .00007196  00000-0  36842-2 0  9995
2 55871  98.8151 117.7439 0027376  29.6157 330.6560 14.15572798 61916
Source of the keplerian elements: AFSPC